Waarnemingen

Advertentie
Mijn weer
Ölands Södra Udde, Zweden (2644): temperatuur & dauwpunt: 19.02.2018 06:00:00 - 25.02.2018 06:00:00 (CET)Ölands Södra Udde, Zweden (2644): windsnelheid & windstoten: 19.02.2018 06:00:00 - 25.02.2018 06:00:00 (CET)Ölands Södra Udde, Zweden (2644): windrichting: 19.02.2018 06:00:00 - 25.02.2018 06:00:00 (CET)Ölands Södra Udde, Zweden (2644): luchtdruk: 19.02.2018 06:00:00 - 25.02.2018 06:00:00 (CET)Ölands Södra Udde, Zweden (2644): zicht: 19.02.2018 06:00:00 - 25.02.2018 06:00:00 (CET)Ölands Södra Udde, Zweden (2644): neerslag: 19.02.2018 06:00:00 - 25.02.2018 06:00:00 (CET)
Datum & Tijd tt [°C] td [°C] ff [km/u] ff [kn] fx [km/u] fx [kn] dd ppp [hPa] vv [km] rr [mm]
25.02.2018 06:00:00 - - - - - - - - - -
25.02.2018 05:00:00 -5,2 -6,6 29 16 38 21 N 1034,8 - 0,0
25.02.2018 04:00:00 -4,9 -6,3 28 15 35 19 N 1034,8 - 0,0
25.02.2018 03:00:00 -5,5 -7,2 26 14 36 19 N 1035,0 - 0,0
25.02.2018 02:00:00 -5,0 -6,7 27 14 36 19 N 1035,2 - 0,0
25.02.2018 01:00:00 -4,8 -6,3 24 13 35 19 N 1035,4 - 0,0
25.02.2018 00:00:00 -5,1 -6,9 26 14 36 19 N 1035,6 - 0,0
24.02.2018 23:00:00 -5,3 -6,4 24 13 37 20 N 1035,6 - 0,0
24.02.2018 22:00:00 -5,0 -6,0 28 15 37 20 N 1035,5 - 0,0
24.02.2018 21:00:00 -4,9 -5,7 25 14 34 19 N 1035,5 - 0,0
24.02.2018 20:00:00 -4,9 -5,7 24 13 34 18 N 1035,6 - 0,2
24.02.2018 19:00:00 -5,1 -6,3 16 9 29 16 N 1035,8 46 0,0
24.02.2018 18:00:00 -4,4 -5,2 19 10 32 17 N 1036,0 3,7 0,0
24.02.2018 17:00:00 -3,9 -5,9 22 12 40 21 N 1035,9 7 0,0
24.02.2018 16:00:00 -3,1 -7,8 22 12 40 22 NNO 1035,8 45 0,0
24.02.2018 15:00:00 -3,3 -6,1 28 15 47 26 NO 1035,7 10 0,0
24.02.2018 14:00:00 -3,0 -7,0 20 11 47 26 NO 1035,7 50 0,0
24.02.2018 13:00:00 -2,8 -7,1 31 17 46 25 NO 1035,5 20 0,0
24.02.2018 12:00:00 -2,6 -7,3 32 17 48 26 NO 1035,7 36 0,0
24.02.2018 11:00:00 -2,9 -7,4 34 18 48 26 NO 1035,4 30 0,0
24.02.2018 10:00:00 -2,7 -8,0 34 18 53 29 NO 1035,0 37 0,0
24.02.2018 09:00:00 -3,3 -7,3 37 20 59 32 NO 1034,7 19 0,0
24.02.2018 08:00:00 -3,1 -6,2 42 23 59 32 NO 1034,1 6 0,0
24.02.2018 07:00:00 -2,8 -9,3 37 20 50 27 NO 1033,6 50 0,0
24.02.2018 06:00:00 -2,5 -7,0 37 20 50 27 NO 1033,0 50 0,0
24.02.2018 05:00:00 -2,6 -7,9 37 20 54 29 NO 1032,4 50 0,0
24.02.2018 04:00:00 -2,6 -6,4 32 18 54 29 NO 1032,0 22 0,0
24.02.2018 03:00:00 -2,7 -8,0 35 19 54 29 NO 1031,5 22 0,0
24.02.2018 02:00:00 -2,9 -8,8 37 20 54 29 NNO 1031,1 18 0,0
24.02.2018 01:00:00 -2,8 -7,7 37 20 49 26 NO 1030,6 15 0,0
24.02.2018 00:00:00 -2,5 -7,4 32 18 54 29 NNO 1030,3 20 0,0
23.02.2018 23:00:00 -2,6 -6,1 31 17 54 29 NNO 1029,9 15 0,0
23.02.2018 22:00:00 -2,3 -3,4 22 12 42 23 NNO 1029,5 3,3 0,2
23.02.2018 21:00:00 -2,7 -3,4 25 14 40 22 N 1028,9 1,4 0,1
23.02.2018 20:00:00 -2,0 -5,0 28 15 35 19 N 1028,3 50 0,0
23.02.2018 19:00:00 -1,7 -4,9 22 12 44 24 N 1027,9 50 0,0
23.02.2018 18:00:00 -1,2 -3,2 30 16 44 24 N 1027,3 50 0,0
23.02.2018 17:00:00 -1,3 -3,0 30 16 40 21 N 1026,8 50 0,0
23.02.2018 16:00:00 -1,2 -3,1 28 15 37 20 N 1026,7 50 0,0
23.02.2018 15:00:00 - - - - - - - - - -
23.02.2018 14:00:00 -0,5 -3,4 22 12 31 17 NNW 1026,5 40 0,0
23.02.2018 13:00:00 -0,5 -2,6 21 11 35 19 WNW 1026,8 15 0,0
23.02.2018 12:00:00 -0,4 -3,9 27 14 37 20 W 1026,9 40 0,0
23.02.2018 11:00:00 -0,7 -3,9 27 15 39 21 W 1027,2 41 0,0
23.02.2018 10:00:00 -1,2 -4,5 29 16 45 24 W 1027,2 50 0,0
23.02.2018 09:00:00 -0,9 -5,1 34 18 45 24 W 1027,4 50 0,0
23.02.2018 08:00:00 -0,9 -5,1 28 15 33 18 W 1027,6 50 0,0
23.02.2018 07:00:00 -1,3 -5,7 17 9 26 14 W 1027,8 50 0,0
23.02.2018 06:00:00 -1,3 -5,9 17 9 23 12 W 1028,0 50 0,0
23.02.2018 05:00:00 -1,3 -6,4 13 7 19 10 W 1027,9 50 0,0
23.02.2018 04:00:00 -1,5 -5,7 10 5 14 8 W 1028,0 50 0,0
23.02.2018 03:00:00 -1,7 -6,8 9 5 13 7 WZW 1028,3 50 0,0
23.02.2018 02:00:00 -2,0 -7,5 6 3 12 7 WZW 1028,7 50 0,0
23.02.2018 01:00:00 -1,9 -7,8 6 3 17 9 ZZW 1029,0 50 0,0
23.02.2018 00:00:00 -1,7 -7,2 9 5 18 10 Z 1029,2 50 0,0
22.02.2018 23:00:00 -1,8 -6,9 13 7 18 10 ZO 1029,2 50 0,0
22.02.2018 22:00:00 -2,1 -6,8 10 6 13 7 OZO 1029,4 50 0,0
22.02.2018 21:00:00 -4,1 -7,9 4 2 10 5 NO 1029,8 50 0,0
22.02.2018 20:00:00 -3,9 -8,0 7 4 10 6 NNO 1029,8 50 0,0
22.02.2018 19:00:00 -3,8 -7,6 6 3 14 8 NO 1029,6 50 0,0
22.02.2018 18:00:00 -2,1 -7,8 9 5 15 8 O 1029,6 50 0,0
22.02.2018 17:00:00 -2,1 -8,0 9 5 21 12 O 1029,5 50 0,0
22.02.2018 16:00:00 -1,8 -7,5 10 5 21 12 O 1029,4 49 0,0
22.02.2018 15:00:00 -1,6 -7,1 9 5 18 10 O 1029,6 43 0,0
22.02.2018 14:00:00 -1,5 -7,0 13 7 22 12 O 1029,8 36 0,0
22.02.2018 13:00:00 -1,3 -7,0 13 7 26 14 OZO 1030,0 34 0,0
22.02.2018 12:00:00 -1,4 -6,5 16 9 28 15 O 1030,0 34 0,0
22.02.2018 11:00:00 -1,2 -5,6 19 10 29 16 OZO 1029,8 35 0,0
22.02.2018 10:00:00 -1,2 -5,8 21 11 30 16 OZO 1029,6 36 0,0
22.02.2018 09:00:00 -1,1 -5,1 22 12 34 18 O 1029,4 35 0,0
22.02.2018 08:00:00 -1,1 -5,0 25 13 34 19 OZO 1028,9 28 0,0
22.02.2018 07:00:00 -0,9 -4,4 26 14 39 21 OZO 1028,5 38 0,0
22.02.2018 06:00:00 -1,0 -3,8 27 15 43 23 OZO 1028,1 33 0,0
22.02.2018 05:00:00 -1,0 -3,5 34 18 44 24 OZO 1027,8 26 0,0
22.02.2018 04:00:00 -0,8 -2,1 36 20 44 24 OZO 1027,6 5 0,4
22.02.2018 03:00:00 -3,9 -4,9 23 12 29 16 N 1028,0 2,1 0,1
22.02.2018 02:00:00 -4,7 -5,7 22 12 28 15 N 1027,8 30 0,0
22.02.2018 01:00:00 -4,8 -5,9 17 9 24 13 N 1028,0 24 0,0
22.02.2018 00:00:00 -4,1 -5,3 19 10 26 14 N 1028,0 26 0,0
21.02.2018 23:00:00 -4,2 -5,7 19 10 26 14 N 1027,9 31 0,0
21.02.2018 22:00:00 -3,3 -5,3 19 11 24 13 N 1027,7 50 0,0
21.02.2018 21:00:00 -2,7 -4,3 16 9 21 11 NNO 1027,4 50 0,0
21.02.2018 20:00:00 -1,9 -2,9 10 6 17 9 NNO 1027,1 13 0,0
21.02.2018 19:00:00 -1,4 -2,8 13 7 17 9 NO 1026,6 25 0,0
21.02.2018 18:00:00 -1,5 -2,6 13 7 15 8 NO 1026,3 10 0,0
21.02.2018 17:00:00 -1,3 -3,2 8 4 10 5 ONO 1026,1 13 0,0
21.02.2018 16:00:00 -1,2 -3,1 3 2 6 3 ONO 1026,1 8 0,0
21.02.2018 15:00:00 -0,7 -3,2 0 0 6 4 N 1026,1 17 0,0
21.02.2018 14:00:00 -0,5 -3,2 3 2 6 4 W 1026,4 15 0,0
21.02.2018 13:00:00 -1,4 -3,9 3 2 9 5 N 1026,9 18 0,0
21.02.2018 12:00:00 -1,8 -4,3 5 3 16 8 N 1027,0 14 0,0
21.02.2018 11:00:00 -2,0 -4,7 6 3 18 10 N 1026,9 17 0,0
21.02.2018 10:00:00 -2,2 -4,2 11 6 18 10 N 1027,0 20 0,0
21.02.2018 09:00:00 -2,4 -4,9 10 6 14 8 NNO 1026,7 30 0,0
21.02.2018 08:00:00 -2,7 -4,4 10 5 18 10 N 1026,4 25 0,0
21.02.2018 07:00:00 -2,4 -4,1 11 6 18 10 N 1026,6 29 0,0
21.02.2018 06:00:00 -2,5 -3,9 13 7 17 9 N 1026,6 23 0,0
21.02.2018 05:00:00 -3,1 -4,5 10 5 23 12 N 1026,8 26 0,0
21.02.2018 04:00:00 -2,8 -4,5 14 7 24 13 NNO 1026,8 31 0,0
21.02.2018 03:00:00 -2,6 -4,2 17 9 24 13 N 1027,1 29 0,0
21.02.2018 02:00:00 -2,7 -4,0 14 8 23 12 N 1027,2 23 0,0
21.02.2018 01:00:00 -3,0 -4,1 17 9 23 12 N 1027,3 17 0,0
21.02.2018 00:00:00 -2,9 -3,9 18 10 25 14 N 1027,4 18 0,0
20.02.2018 23:00:00 -2,8 -3,9 21 11 28 15 N 1027,2 17 0,0
20.02.2018 22:00:00 -1,9 -3,2 21 11 28 15 N 1027,0 28 0,0
20.02.2018 21:00:00 -1,4 -3,0 18 10 23 12 N 1027,0 45 0,0
20.02.2018 20:00:00 -1,3 -2,6 15 8 21 12 N 1026,9 7 0,0
20.02.2018 19:00:00 0,1 -2,3 14 7 27 15 ONO 1026,6 40 0,0
20.02.2018 18:00:00 0,0 -1,9 16 9 33 18 ONO 1026,4 29 0,0
20.02.2018 17:00:00 -0,1 -1,4 22 12 33 18 ONO 1026,1 11 0,0
20.02.2018 16:00:00 -0,1 -0,7 24 13 33 18 ONO 1025,9 13 0,1
20.02.2018 15:00:00 -0,1 -0,5 25 14 36 19 O 1026,1 8 0,1
20.02.2018 14:00:00 -0,2 -0,5 30 16 37 20 ONO 1026,1 8 0,0
20.02.2018 13:00:00 -0,1 -0,2 29 16 39 21 ONO 1025,9 3,1 0,1
20.02.2018 12:00:00 -0,1 -0,2 32 17 39 21 ONO 1025,9 2,6 0,3
20.02.2018 11:00:00 0,4 -0,6 31 17 39 21 ONO 1025,7 4,7 0,1
20.02.2018 10:00:00 0,7 -0,9 31 17 39 21 O 1025,4 10 0,0
20.02.2018 09:00:00 0,8 -0,5 32 17 40 22 ONO 1025,0 9 0,0
20.02.2018 08:00:00 0,9 0,2 33 18 40 22 O 1024,5 8 0,0
20.02.2018 07:00:00 0,4 0,1 9 5 12 7 N 1024,3 4,3 0,3
20.02.2018 06:00:00 0,3 -0,1 7 4 11 6 NNO 1024,3 3,7 0,0
20.02.2018 05:00:00 0,7 0,3 8 5 11 6 NO 1024,4 3,6 0,0
20.02.2018 04:00:00 0,6 0,0 8 4 9 5 NNO 1024,3 5 0,0
20.02.2018 03:00:00 0,8 0,1 4 2 6 3 NNO 1024,4 6 0,0
20.02.2018 02:00:00 0,2 -0,4 4 2 6 3 NNO 1024,3 6 0,0
20.02.2018 01:00:00 0,1 -0,5 3 2 5 3 ONO 1024,3 5 0,0
20.02.2018 00:00:00 0,9 0,0 0 0 4 2 N 1024,1 11 0,0
19.02.2018 23:00:00 0,0 -0,4 0 0 5 3 N 1024,0 6 0,0
19.02.2018 22:00:00 1,0 0,6 3 2 6 3 ZO 1023,9 7 0,0
19.02.2018 21:00:00 0,1 0,0 3 2 8 4 O 1023,7 3,9 0,0
19.02.2018 20:00:00 0,2 -0,2 5 3 8 4 O 1023,6 3,2 0,0
19.02.2018 19:00:00 0,1 -0,5 5 3 7 4 ONO 1023,3 4,2 0,0
19.02.2018 18:00:00 2,1 0,8 4 2 8 4 ZZW 1023,1 8 0,0
19.02.2018 17:00:00 2,3 1,1 6 3 9 5 Z 1022,8 8 0,0
19.02.2018 16:00:00 2,7 0,9 5 3 10 5 ZZW 1022,4 10 0,0
19.02.2018 15:00:00 2,8 0,5 6 4 16 9 ZZW 1022,4 11 0,0
19.02.2018 14:00:00 2,8 0,7 7 4 18 10 ZZW 1022,2 10 0,0
19.02.2018 13:00:00 2,9 0,5 15 8 18 10 ZZW 1022,2 11 0,0
19.02.2018 12:00:00 3,4 1,0 8 4 14 7 ZW 1022,3 11 0,0
19.02.2018 11:00:00 3,1 0,7 8 5 14 7 ZW 1022,2 11 0,0
19.02.2018 10:00:00 3,1 1,1 10 5 15 8 ZW 1022,2 12 0,0
19.02.2018 09:00:00 2,7 1,1 10 5 17 9 ZW 1022,0 12 0,0
19.02.2018 08:00:00 2,3 0,8 10 6 20 11 WZW 1021,7 13 0,0
19.02.2018 07:00:00 2,1 0,8 13 7 22 12 WZW 1021,7 13 0,0
19.02.2018 06:00:00 2,3 0,8 13 7 22 12 WZW 1021,7 14 0,0

tt = temperatuur
td = dauwpunt
ff = windsnelheid
fx = windstoten
dd = windrichting
ppp = luchtdruk
vv = zicht
rr = neerslag

Weerstations in de omgeving